Карточка аэропорта UADD

Внимание!
Информация на этой странице в стадии наполнения.
Если вы не увидели какой-то информации, или заметили неточность - пожалуйста сообщите нам!
Спасибо!
Команда XR-STAFF
Название аэропортаТараз
Название аэропорта (англ.)Taraz
Превышение2188 ft. (666.9 m.)
Координаты42°51.702', 71°17.784'
Высота перехода10000ft
Эшелон переходаFL120, QNH<733:FL130
Коды ответчика3476-3477, 3524-3527
Зона ОрВДШымкент РПИ (UAII)
Данные METARUADD 160730Z 34003MPS 290V020 9999 NSC 25/09 Q1014 NOSIG RMK QFE703/0938
Проноз погоды (TAF)
NOTAMshow/hide NOTAM
AWOS   TABLE

Информация о ВПП

ВПП Длина ВПП (м.) Покрытие Курс ВПП Частота ILS
133501Асфальтобетон137109.7
313501Асфальтобетон317 

Диспетчерские позиции

Позывной Наименование органа УВД Частота
UADD_TWRТараз Вышка122.1
UADD_APPТараз Подход119.3



Спутниковое изображение